Regional Weather Roundup
Issued by NWS

Home | Current Version | Previous Version | Graphics & Text | Print | Product List | Glossary On
Versions: 1 2 3 4 5 6 7 8 9 10 11 12 13 14 15 16 17 18 19 20 21 22 23 24 25 26 27 28 29 30 31 32 33 34 35 36 37 38 39 40 41 42 43 44 45 46 47 48 49 50
682
ASUS45 KBOU 180810
RWRCO

WEATHER ROUNDUP FOR COLORADO
NATIONAL WEATHER SERVICE PUEBLO CO
100 AM MST SUN FEB 18 2018

NOTE: "FAIR" INDICATES FEW OR NO CLOUDS BELOW 12000 FEET WITH NO
SIGNIFICANT WEATHER AND/OR OBSTRUCTIONS TO VISIBILITY.

COZ001>005-013-030-031-180900-
...NORTHWEST COLORADO...

CITY           SKY/WX    TMP DP  RH WIND       PRES   REMARKS
CRAIG          MOCLDY    40  15  36 SW18G32   29.81F
HAYDEN         MOCLDY    32  15  49 NE3       29.83F
MEEKER         CLEAR     39  14  36 MISG      29.84F
RABBIT EARS PA NOT AVBL
STEAMBOAT SPGS FAIR      21  14  75 E3        29.82F
WALDEN         FAIR      27   7  43 S12       29.79F WCI  16
$$

COZ006>008-011-180900-
...WEST CENTRAL VALLEYS...

CITY           SKY/WX    TMP DP  RH WIND       PRES   REMARKS
GRAND JUNCTION CLEAR     33  22  63 E10       29.91F WCI  25
MONTROSE       CLEAR     31  17  56 E3        29.97F
EAGLE          CLEAR     23  15  71 E9        29.93F WCI  13
RIFLE          CLEAR     24  18  77 SW3       29.94F
DELTA          NOT AVBL
NUCLA          FAIR      32  16  51 NE5       30.03F WCI  27
$$

COZ017>023-064>068-180900-
...SOUTHWEST COLORADO...

CITY           SKY/WX    TMP DP  RH WIND       PRES   REMARKS
DURANGO        CLEAR     24  18  77 CALM      30.08F
CORTEZ         CLEAR     20  14  77 CALM      30.04F
PAGOSA SPRINGS FAIR      22  16  75 CALM      30.10F
TELLURIDE      CLEAR     35   8  32 E5        30.07F WCI  31
WOLF CREEK PAS   N/A     14  14 100 S20G28    30.14F WCI  -3
$$

COZ009-010-012-014-032>034-037-058>063-180900-
...CENTRAL COLORADO...

CITY           SKY/WX    TMP DP  RH WIND       PRES   REMARKS
ASPEN          CLEAR     19  11  70 S8        29.91F WCI   9
BUENA VISTA    FAIR      37   2  23 SE12      29.92F
COPPER MTN     LGT SNOW  28   5  37 S28G35    29.95F WCI  13
BERTHOUD PASS  FAIR      21  10  63 W49G68    29.84R WCI  -1
COTTONWOOD PAS CLEAR     37  -8  14 W9G25     29.94F
GUNNISON       NOT AVBL
KREMMLING      CLEAR     41   9  26 SW29G37   29.83F
LEADVILLE      CLEAR     22   4  46 E8        29.92F WCI  12
MONARCH PASS   CLEAR     19   0  42 W31       30.10F WCI   0
SALIDA         FAIR      40   8  26 S15G21    30.00F
SUNLIGHT       CLEAR     21   9  58 SW28G38     N/A  WCI   3
WILKERSON PASS CLEAR     25  -2  30 SW25G40   29.92F WCI   9
$$

COZ069>075-180900-
...SAN LUIS VALLEY/SANGRE DE CRISTO MOUNTAINS...

CITY           SKY/WX    TMP DP  RH WIND       PRES   REMARKS
ALAMOSA        PTCLDY    30   9  41 CALM      30.03S
DEL NORTE      FAIR      35  11  37 W17       30.01F WCI  24
LA VETA PASS   PTCLDY    28   3  34 S33G58    30.02F WCI  12
SAGUACHE       PTCLDY    18   0  45 N5        30.03F WCI  11
$$

COZ035-036-038>040-180900-
...NORTHERN COLORADO FRONT RANGE...

CITY           SKY/WX    TMP DP  RH WIND       PRES   REMARKS
DENVER INTL AP CLEAR     40  12  32 S17       29.69F
DMNS CITY PARK NOT AVBL
AURORA         CLEAR     44   8  23 S17       29.71F
FRONT RANGE AP FAIR      42  12  29 S16       29.72F
ERIE MUNI ARPT FAIR      35  11  36 S8        29.75F WCI  29
BOULDER MUN AP FAIR      43  10  26 S6        29.68F
CENTENNIAL     PTCLDY    47   8  20 SW25G35   29.70F
BROOMFIELD     CLEAR     37  10  32 S5        29.70F
LOVELAND       PTCLDY    37  12  35 SE12      29.67
LONGMONT       FAIR      44  11  26 S8        29.70S
$$

COZ041-046-047-076>085-087-088-180900-
...PIKES PEAK/PALMER DIVIDE AND SOUTHERN FOOTHILLS...

CITY           SKY/WX    TMP DP  RH WIND       PRES   REMARKS
COLO. SPRINGS  PTCLDY    37  14  38 E9        29.79F
A. F. ACADEMY  PTCLDY    31  10  41 NE8       29.77F WCI  24
SCHRIEVER AFB  NOT AVBL
CHEYENNE MTN   NOT AVBL
ELLICOTT         N/A    N/A N/A N/A SW21      29.79F
FALCON         FAIR      34   8  33 MISG      29.82F
FORT CARSON    PTCLDY    36  15  41 S14G20    29.78F
LIMON          MOCLDY    37  14  38 SW15      29.78F
MONUMENT HILL  CLEAR     43   7  22 SW23G40   29.78F
CANON CITY     CLEAR     48  14  25 W6        29.79F
WALSENBURG     FAIR      50   7  17 W25G37    29.87F
TRINIDAD       MOCLDY    43  17  35 SW17      29.86F
$$

COZ042>045-048>051-090-091-180900-
...NORTHEAST COLORADO...

CITY           SKY/WX    TMP DP  RH WIND       PRES   REMARKS
GREELEY ARPT   PTCLDY    26  17  68 CALM      29.68F
AKRON          CLEAR     37  16  42 S12       29.71F
BURLINGTON     PTCLDY    37  15  40 S21       29.77F
WRAY           FAIR      37  18  44 SW16G25   29.73F
YUMA           NOT AVBL
STERLING       FAIR      32  19  59 S9        29.68F WCI  24
HOLYOKE        FAIR      34  19  55 S9        29.72F WCI  26
FORT MORGAN    FAIR      34  12  40 S3        29.69F
$$

COZ086-089-092>099-180900-
...SOUTHEAST COLORADO...

CITY           SKY/WX    TMP DP  RH WIND       PRES   REMARKS
PUEBLO         PTCLDY    27  21  78 NE3       29.80F
LA JUNTA       CLOUDY    46  20  35 SW7       29.80F
LAMAR          CLOUDY    41  20  43 SW6       29.81F
SPRINGFIELD      N/A     42  25  50 S28G36    29.88F
$$





USA.gov is the U.S. government's official web portal to all federal, state and local government web resources and services.